Weather History for PABR - March, 2014

Change the Weather History Date:

Wednesday, March 26, 2014

  Actual Average Record
Temperature  
Mean Temperature 1 °F -11 °F  
Max Temperature 8 °F -4 °F 30 °F (1996)
Min Temperature -6 °F -17 °F -45 °F (1962)
Degree Days  
Heating Degree Days 64 75  
Month to date heating degree days 1830 2033  
Since 1 July heating degree days 13492 14881  
Cooling Degree Days 0    
Month to date cooling degree days 0  
Year to date cooling degree days 0  
Moisture  
Dew Point -5 °F    
Average Humidity 0    
Maximum Humidity 0    
Minimum Humidity 0    
Precipitation  
Precipitation 0.00 in 0.00 in 0.27 in (2013)
Month to date precipitation 0.05 0.07  
Year to date precipitation 0.42 0.34  
Snow  
Snow 0.00 in 0.00 in 3.10 in (2013)
Month to date snowfall 1.7 1.7  
Since 1 July snowfall 44.3 30.7  
Snow Depth 8.00 in    
Sea Level Pressure  
Sea Level Pressure 29.94 in    
Wind  
Wind Speed 13 mph (ESE)    
Max Wind Speed 17 mph    
Max Gust Speed 20 mph    
Visibility 10 miles    
Events      
T = Trace of Precipitation, MM = Missing Value Source: NWS Daily Summary

Daily Weather History Graph

Daily Weather History Graph

Search for Another Location

Airport or City:

Trip Planner

Search our weather history database for the weather conditions in past years. The results will help you decide how hot, cold, wet, or windy it might be!

Date:

Astronomy

Mar. 26, 2014 Rise Set
Actual Time 7:54 AM AKDT 9:13 PM AKDT
Civil Twilight 6:46 AM AKDT 10:21 PM AKDT
Nautical Twilight 5:12 AM AKDT 11:58 PM AKDT
Astronomical Twilight 3:05 AM AKDT Sun does not rise
Moon 7:45 AM AKDT (3/26) 2:40 PM AKDT (3/26)
Length of Visible Light 15h 35m
Length of Day
13h 19m
Waning Crescent, 20% of the Moon is Illuminated
Mar 26
Waning Crescent
Mar 30
New
Apr 7
First Quarter
Apr 14
Full
Apr 21
Last Quarter

Hourly Weather History & Observations

Time (AKDT) Temp. Windchill Dew Point Humidity Pressure Visibility Wind Dir Wind Speed Gust Speed Precip Events Conditions
12:53 AM -0.9 °F -19.1 °F -6.0 °F 79% 30.02 in 10.0 mi ESE 12.7 mph - N/A   Clear
1:53 AM -0.9 °F -19.1 °F -6.0 °F 79% 30.01 in 10.0 mi East 12.7 mph - N/A   Clear
2:53 AM -2.0 °F -20.5 °F -8.0 °F 76% 30.00 in 10.0 mi ESE 12.7 mph - N/A   Clear
3:53 AM -2.0 °F -21.2 °F -8.0 °F 76% 29.99 in 10.0 mi ESE 13.8 mph - N/A   Partly Cloudy
4:53 AM -2.9 °F -23.1 °F -8.0 °F 79% 29.98 in 10.0 mi ESE 15.0 mph - N/A   Partly Cloudy
5:53 AM -4.0 °F -24.5 °F -9.0 °F 79% 29.97 in 10.0 mi ESE 15.0 mph - N/A   Partly Cloudy
6:53 AM -5.1 °F -25.1 °F -11.0 °F 76% 29.96 in 10.0 mi ESE 13.8 mph - N/A   Partly Cloudy
7:53 AM -6.0 °F -26.3 °F -11.9 °F 75% 29.95 in 10.0 mi ESE 13.8 mph - N/A   Partly Cloudy
8:53 AM -5.1 °F -22.5 °F -11.0 °F 76% 29.94 in 10.0 mi ESE 10.4 mph - N/A   Clear
9:53 AM -4.0 °F -23.7 °F -9.9 °F 76% 29.93 in 10.0 mi ESE 13.8 mph - N/A   Clear
10:53 AM -2.0 °F -21.2 °F -8.0 °F 76% 29.93 in 10.0 mi ESE 13.8 mph - N/A   Clear
11:53 AM -0.0 °F -17.1 °F -7.1 °F 72% 29.93 in 10.0 mi ESE 11.5 mph - N/A   Clear
12:53 PM 1.9 °F -14.7 °F -5.1 °F 72% 29.93 in 10.0 mi ESE 11.5 mph - N/A   Clear
1:53 PM 3.0 °F -12.5 °F -2.9 °F 76% 29.94 in 10.0 mi ESE 10.4 mph - N/A   Clear
2:53 PM 5.0 °F -12.3 °F -2.0 °F 73% 29.93 in 10.0 mi East 13.8 mph - N/A   Clear
3:53 PM 7.0 °F -9.8 °F -0.0 °F 73% 29.91 in 10.0 mi East 13.8 mph - N/A   Clear
4:53 PM 8.1 °F -7.7 °F 1.9 °F 76% 29.91 in 10.0 mi ESE 12.7 mph - N/A   Clear
5:53 PM 8.1 °F -8.4 °F 1.9 °F 76% 29.90 in 10.0 mi ESE 13.8 mph - N/A   Clear
6:53 PM 7.0 °F -8.3 °F 1.0 °F 77% 29.90 in 10.0 mi ESE 11.5 mph - N/A   Clear
7:53 PM 5.0 °F -10.8 °F -0.9 °F 76% 29.88 in 10.0 mi ESE 11.5 mph - N/A   Clear
8:53 PM 3.9 °F -12.2 °F -0.9 °F 80% 29.87 in 10.0 mi ESE 11.5 mph - N/A   Clear
9:53 PM 1.9 °F -12.9 °F -2.9 °F 80% 29.90 in 10.0 mi SSE 9.2 mph - N/A   Clear
10:53 PM 1.0 °F -16.6 °F -4.0 °F 79% 29.89 in 10.0 mi ESE 12.7 mph - N/A   Clear
11:53 PM -0.9 °F -17.4 °F -6.0 °F 79% 29.89 in 10.0 mi ESE 10.4 mph - N/A   Clear